Weather History for Fountain Dale, PA

Change the Weather History Date:

Tuesday, August 27, 2013

  Actual Average (KHGR) Record (KHGR)
Temperature  
Mean Temperature 86 °F -  
Max Temperature 93 °F 80 °F 90 °F (2013)
Min Temperature 79 °F 61 °F 57 °F (2008)
Cooling Degree Days 21    
Growing Degree Days 36 (Base 50)    
Moisture  
Dew Point 66 °F    
Average Humidity 55    
Maximum Humidity 72    
Minimum Humidity 41    
Precipitation  
Precipitation 0.01 in - - ()
Sea Level Pressure  
Sea Level Pressure 29.91 in    
Wind  
Wind Speed 4 mph (SW)    
Max Wind Speed 10 mph    
Max Gust Speed 16 mph    
Visibility 8 miles    
Events      
Averages and records for this station are not official NWS values.
T = Trace of Precipitation, MM = Missing Value Source: NWS Daily Summary

Daily Weather History Graph

Daily Weather History Graph

Search for Another Location

Airport:

Trip Planner

Search our weather history database for the weather conditions in past years. The results will help you decide how hot, cold, wet, or windy it might be!

Date:

Astronomy

Aug. 27, 2013 Rise Set
Actual Time 6:33 AM EDT 7:48 PM EDT
Civil Twilight 6:05 AM EDT 8:16 PM EDT
Nautical Twilight 5:31 AM EDT 8:49 PM EDT
Astronomical Twilight 4:56 AM EDT 9:24 PM EDT
Moon 11:41 PM EDT (8/27) 1:28 PM EDT (8/27)
Length of Visible Light 14h 10m
Length of Day
13h 14m
Waning Gibbous, 57% of the Moon is Illuminated
Aug 27
Waning Gibbous
Aug 28
Last Quarter
Sep 5
New
Sep 12
First Quarter
Sep 19
Full

Hourly Weather History & Observations

Time (EDT) Temp. Heat Index Dew Point Humidity Pressure Visibility Wind Dir Wind Speed Gust Speed Precip Events Conditions
12:53 AM 82.0 °F 83.0 °F 62.1 °F 51% 29.94 in 10.0 mi Variable 5.8 mph - N/A   Clear
1:53 AM 81.0 °F 81.9 °F 62.1 °F 52% 29.93 in 10.0 mi SW 10.4 mph 16.1 mph N/A   Partly Cloudy
2:53 AM 81.0 °F 81.9 °F 62.1 °F 52% 29.91 in 10.0 mi SSW 5.8 mph - N/A   Clear
4:53 AM 80.1 °F 81.5 °F 63.0 °F 56% 29.90 in 10.0 mi Calm Calm - N/A   Partly Cloudy
7:53 AM 79.0 °F - 64.9 °F 62% 29.93 in 8.0 mi Calm Calm - N/A   Mostly Cloudy
8:12 AM 80.6 °F 82.7 °F 66.2 °F 61% 29.97 in 8.0 mi Calm Calm - N/A   Mostly Cloudy
8:53 AM 82.0 °F 84.1 °F 66.0 °F 58% 29.91 in 9.0 mi Calm Calm - N/A   Scattered Clouds
9:53 AM 82.9 °F 85.4 °F 66.9 °F 58% 29.91 in 8.0 mi Variable 4.6 mph - N/A   Clear
10:53 AM 87.1 °F 90.6 °F 68.0 °F 53% 29.93 in 7.0 mi Variable 3.5 mph - N/A   Mostly Cloudy
11:05 AM 86.0 °F 89.4 °F 68.0 °F 55% 29.98 in 6.0 mi Variable 3.5 mph - N/A   Haze
11:15 AM 86.0 °F 89.4 °F 68.0 °F 55% 29.98 in 6.0 mi Calm Calm - N/A   Haze
11:53 AM 86.0 °F 88.8 °F 66.9 °F 53% 29.93 in 7.0 mi Variable 3.5 mph - N/A   Mostly Cloudy
12:53 PM 87.1 °F 89.9 °F 66.9 °F 51% 29.91 in 7.0 mi Variable 4.6 mph - N/A   Overcast
1:53 PM 90.0 °F 92.4 °F 66.0 °F 45% 29.89 in 9.0 mi Variable 4.6 mph - N/A   Partly Cloudy
3:53 PM 93.0 °F 95.9 °F 66.0 °F 41% 29.86 in 10.0 mi Calm Calm - N/A   Clear
4:53 PM 91.9 °F 94.5 °F 66.0 °F 42% 29.86 in 10.0 mi Calm Calm - N/A   Scattered Clouds
5:53 PM 87.1 °F 92.0 °F 70.0 °F 57% 29.87 in 5.0 mi Variable 3.5 mph - N/A   Haze
7:53 PM 84.0 °F 87.8 °F 69.1 °F 61% 29.88 in 5.0 mi Calm Calm - N/A   Haze
8:53 PM 84.0 °F 87.0 °F 68.0 °F 58% 29.88 in 7.0 mi Variable 3.5 mph - N/A   Scattered Clouds
9:53 PM 81.0 °F 84.1 °F 69.1 °F 67% 29.89 in 6.0 mi Calm Calm - N/A   Haze
10:53 PM 79.0 °F - 69.1 °F 72% 29.89 in 6.0 mi SW 3.5 mph - N/A   Haze